Home > Weather > Columbia > Past weeks

Flag for USA Past Weather in Columbia, South Carolina, USA — Yesterday and Last 2 Weeks

Now
91 °F

Sunny.


Feels Like: 93 °F
Forecast: 72 / 90 °F
Wind: 3 mph from North

Location: Columbia Owens Downtown Airport

Current Time: Aug 23, 2016 at 5:16:12 PM

Latest Report: Aug 23, 2016 at 3:53 PM


Visibility: 10 mi

Pressure: 30.19 "Hg

Humidity: 42%

Dew Point: 65 °F

Location of ColumbiaLocation

Past Weather in Columbia — Graph

°F

Columbia Temperature Yesterday

Maximum temperature yesterday: 90 °F (at 2:53 PM)
Minimum temperature yesterday: 77 °F (at 5:53 AM)
Average temperature yesterday: 83 °F

High & Low Weather Summary for the Past Weeks

 TemperatureHumidityPressure
High97 °F (Aug 17, 3:53 PM)94% (Aug 20, 5:53 AM)30.27 "Hg (Aug 20, 5:53 AM)
Low73 °F (Aug 23, 5:53 AM)39% (Aug 22, 2:53 PM)29.85 "Hg (Aug 20, 4:53 PM)
Average84 °F70%30.07 "Hg
* Reported Aug 8 3:53 PM — Aug 23 3:53 PM, Columbia, Weather by CustomWeather, © 2016

Note: Actual official high and low records may vary slightly from our data, if they occured in-between our weather recording intervals... More about our weather records

Advertising

Columbia Weather History for the Previous 24 Hours

Scroll right to see more
 ConditionsComfort  
Time TempWeatherWind HumidityBarometerVisibility
3:53 PM
Tue, Aug 23
91 °FSunny.3 mph42%30.19 "Hg10 mi
2:53 PM92 °FScattered clouds.5 mph40%30.22 "Hg10 mi
1:53 PM88 °FOvercast.No wind46%30.24 "Hg10 mi
12:53 PM89 °FMostly cloudy.3 mph45%30.26 "Hg10 mi
11:53 AM88 °FPassing clouds.N/A54%30.27 "Hg10 mi
10:53 AM86 °FSunny.3 mph59%30.26 "Hg10 mi
9:53 AM83 °FSunny.5 mph63%30.26 "Hg10 mi
8:53 AM79 °FSunny.No wind67%30.25 "Hg10 mi
7:53 AM74 °FSunny.No wind71%30.24 "Hg10 mi
6:53 AM73 °FPassing clouds.No wind74%30.22 "Hg10 mi
5:53 AM73 °FClear.No wind76%30.21 "Hg10 mi
4:53 AM74 °FClear.No wind74%30.19 "Hg10 mi
3:53 AM75 °FPassing clouds.No wind76%30.19 "Hg10 mi
2:53 AM76 °FClear.No wind74%30.18 "Hg10 mi
1:53 AM76 °FPassing clouds.No wind77%30.18 "Hg10 mi
12:53 AM77 °FClear.No wind74%30.17 "Hg10 mi
11:53 PM
Mon, Aug 22
78 °FClear.No wind71%30.16 "Hg10 mi
10:53 PM79 °FClear.No wind69%30.16 "Hg10 mi
9:53 PM80 °FClear.No wind67%30.15 "Hg10 mi
8:53 PM83 °FSunny.No wind59%30.13 "Hg10 mi
7:53 PM86 °FSunny.No wind51%30.11 "Hg10 mi
6:53 PM90 °FSunny.3 mph42%30.09 "Hg10 mi
5:53 PM90 °FPartly sunny.3 mph41%30.09 "Hg10 mi
Weather by CustomWeather, © 2016

See weather overviewHow to use our weather pages